,,Stat6,,Stat2,,Stat8,,Stat9,,Stat10,,Wind1,,Wind1,
time,status,PA1M_AVG,status,PR1M_SUM,status,RH1M_AVG,status,SR1M_AVG,status,TA1M_AVG,status,W1dAve1m,status,W1sAve1m,
2007-04-17, 00:00:00,VALID,918.224,VALID,0,VALID,100,VALID,-0.101885,VALID,20.7542,VALID,152,VALID,0.995427,
2007-04-17, 00:01:00,VALID,918.207,VALID,0,VALID,100,VALID,-0.0849042,VALID,20.7669,VALID,147,VALID,0.946837,
2007-04-17, 00:02:00,VALID,918.207,VALID,0,VALID,100,VALID,-0.0679233,VALID,20.7799,VALID,146,VALID,1.12246,
2007-04-17, 00:03:00,VALID,918.207,VALID,0,VALID,100,VALID,-0.0849042,VALID,20.8059,VALID,141,VALID,0.986073,
2007-04-17, 00:04:00,VALID,918.202,VALID,0,VALID,100,VALID,-0.0679233,VALID,20.8254,VALID,146,VALID,0.53869,
2007-04-17, 00:05:00,VALID,918.193,VALID,0,VALID,100,VALID,-0.0509425,VALID,20.8348,VALID,155,VALID,0.863814,
2007-04-17, 00:06:00,VALID,918.18,VALID,0,VALID,100,VALID,-0.0339617,VALID,20.8543,VALID,150,VALID,0.846128,
2007-04-17, 00:07:00,VALID,918.176,VALID,0,VALID,100,VALID,-0.0849042,VALID,20.8608,VALID,158,VALID,1.16655,
2007-04-17, 00:08:00,VALID,918.151,VALID,0,VALID,100,VALID,-0.101885,VALID,20.8778,VALID,161,VALID,1.06328,
2007-04-17, 00:09:00,VALID,918.132,VALID,0,VALID,100,VALID,-0.0849042,VALID,20.8938,VALID,158,VALID,0.891555,
2007-04-17, 00:10:00,VALID,918.097,VALID,0,VALID,100,VALID,-0.0339617,VALID,20.8865,VALID,161,VALID,0.828852,
2007-04-17, 00:11:00,VALID,918.085,VALID,0,VALID,100,VALID,-0.101885,VALID,20.8868,VALID,155,VALID,0.76734,
2007-04-17, 00:12:00,VALID,918.067,VALID,0,VALID,100,VALID,-0.0509425,VALID,20.8903,VALID,163,VALID,0.780878,
2007-04-17, 00:13:00,VALID,918.055,VALID,0,VALID,100,VALID,-0.0339617,VALID,20.884,VALID,159,VALID,0.48274,
2007-04-17, 00:14:00,VALID,918.049,VALID,0,VALID,100,VALID,0.0509425,VALID,20.8722,VALID,169,VALID,0.803052,
2007-04-17, 00:15:01,VALID,918.047,VALID,0,VALID,100,VALID,0.0339617,VALID,20.8754,VALID,181,VALID,0.413336,
2007-04-17, 00:16:00,VALID,918.033,VALID,0,VALID,100,VALID,0.0509425,VALID,20.8719,VALID,180,VALID,0.488009,
2007-04-17, 00:17:00,VALID,918.019,VALID,0,VALID,100,VALID,0.0679233,VALID,20.8687,VALID,177,VALID,0.359722,
2007-04-17, 00:18:00,VALID,918,VALID,0,VALID,100,VALID,0.0509425,VALID,20.856,VALID,176,VALID,0.628906,
2007-04-17, 00:19:00,VALID,917.987,VALID,0,VALID,100,VALID,0.0849042,VALID,20.8495,VALID,167,VALID,0.607986,
2007-04-17, 00:20:00,VALID,917.97,VALID,0,VALID,100,VALID,0.101885,VALID,20.856,VALID,157,VALID,0.593928,
2007-04-17, 00:21:00,VALID,917.963,VALID,0,VALID,100,VALID,0.0679233,VALID,20.859,VALID,165,VALID,0.30037,
2007-04-17, 00:22:00,VALID,917.952,VALID,0,VALID,100,VALID,0.0849042,VALID,20.856,VALID,160,VALID,0.466025,
2007-04-17, 00:23:00,VALID,917.945,VALID,0,VALID,100,VALID,0.0509425,VALID,20.8595,VALID,155,VALID,0.473899,
2007-04-17, 00:24:00,VALID,917.949,VALID,0,VALID,100,VALID,0.0169808,VALID,20.8597,VALID,162,VALID,0.828125,
2007-04-17, 00:25:00,VALID,917.951,VALID,0,VALID,100,VALID,0.0339617,VALID,20.8525,VALID,169,VALID,0.283612,
2007-04-17, 00:26:00,VALID,917.937,VALID,0,VALID,100,VALID,0.0339617,VALID,20.8697,VALID,161,VALID,0.168605,
2007-04-17, 00:27:00,VALID,917.932,VALID,0,VALID,100,VALID,0.0339617,VALID,20.8627,VALID,155,VALID,0.614648,
2007-04-17, 00:28:00,VALID,917.911,VALID,0,VALID,100,VALID,0.0509425,VALID,20.85,VALID,168,VALID,0.628374,
2007-04-17, 00:29:00,VALID,917.885,VALID,0,VALID,100,VALID,-0.101885,VALID,20.8619,VALID,161,VALID,0.670541,
2007-04-17, 00:30:00,VALID,917.852,VALID,0,VALID,100,VALID,-0.0679233,VALID,20.8546,VALID,171,VALID,0.960227,
2007-04-17, 00:31:00,VALID,917.834,VALID,0,VALID,100,VALID,-0.0679233,VALID,20.8578,VALID,166,VALID,1.08884,
2007-04-17, 00:32:01,VALID,917.818,VALID,0,VALID,100,VALID,-0.0849042,VALID,20.8416,VALID,167,VALID,0.373884,
2007-04-17, 00:33:01,VALID,917.799,VALID,0,VALID,100,VALID,-0.0849042,VALID,20.8351,VALID,171,VALID,0.426367,
2007-04-17, 00:34:00,VALID,917.781,VALID,0,VALID,100,VALID,-0.0849042,VALID,20.8291,VALID,165,VALID,0.783482,
2007-04-17, 00:35:01,VALID,917.754,VALID,0,VALID,100,VALID,-0.0509425,VALID,20.8124,VALID,161,VALID,0.700335,
2007-04-17, 00:36:00,VALID,917.737,VALID,0,VALID,100,VALID,-0.0339617,VALID,20.8021,VALID,167,VALID,0.879954,
2007-04-17, 00:37:00,VALID,917.698,VALID,0,VALID,100,VALID,-0.0509425,VALID,20.8124,VALID,171,VALID,0.908026,
2007-04-17, 00:38:00,VALID,917.671,VALID,0,VALID,100,VALID,-0.0849042,VALID,20.8024,VALID,165,VALID,0.996354,
2007-04-17, 00:39:00,VALID,917.652,VALID,0,VALID,100,VALID,-0.0339617,VALID,20.7991,VALID,167,VALID,0.67351,
2007-04-17, 00:40:01,VALID,917.636,VALID,0,VALID,100,VALID,-0.0169808,VALID,20.7959,VALID,165,VALID,0.843936,
2007-04-17, 00:41:00,VALID,917.612,VALID,0,VALID,100,VALID,-0.0339617,VALID,20.7861,VALID,166,VALID,1.10804,
2007-04-17, 00:42:00,VALID,917.601,VALID,0,VALID,100,VALID,-0.0169808,VALID,20.8024,VALID,169,VALID,0.764436,
2007-04-17, 00:43:01,VALID,917.591,VALID,0,VALID,100,VALID,-0.0339617,VALID,20.8056,VALID,175,VALID,0.569931,
2007-04-17, 00:44:00,VALID,917.588,VALID,0,VALID,100,VALID,-0.135847,VALID,20.8104,VALID,171,VALID,1.16848,
2007-04-17, 00:45:00,VALID,917.567,VALID,0,VALID,100,VALID,-0.135847,VALID,20.8002,VALID,162,VALID,0.918527,
2007-04-17, 00:46:00,VALID,917.559,VALID,0,VALID,100,VALID,-0.152827,VALID,20.8102,VALID,160,VALID,0.900923,
2007-04-17, 00:47:01,VALID,917.544,VALID,0,VALID,100,VALID,-0.118866,VALID,20.814,VALID,161,VALID,1.25037,
2007-04-17, 00:48:00,VALID,917.519,VALID,0,VALID,100,VALID,-0.186789,VALID,20.8172,VALID,151,VALID,1.06889,
2007-04-17, 00:49:00,VALID,917.511,VALID,0,VALID,100,VALID,-0.118866,VALID,20.814,VALID,160,VALID,0.967188,
2007-04-17, 00:50:00,VALID,917.496,VALID,0,VALID,100,VALID,-0.118866,VALID,20.7807,VALID,157,VALID,1.15149,
2007-04-17, 00:51:01,VALID,917.483,VALID,0,VALID,100,VALID,-0.118866,VALID,20.781,VALID,157,VALID,1.05605,
2007-04-17, 00:52:01,VALID,917.468,VALID,0,VALID,100,VALID,-0.101885,VALID,20.774,VALID,144,VALID,1.11223,
2007-04-17, 00:53:00,VALID,917.456,VALID,0,VALID,100,VALID,-0.152827,VALID,20.7845,VALID,132,VALID,1.12118,
2007-04-17, 00:54:01,VALID,917.434,VALID,0,VALID,100,VALID,-0.152827,VALID,20.788,VALID,143,VALID,1.0404,
2007-04-17, 00:55:00,VALID,917.409,VALID,0,VALID,100,VALID,-0.169808,VALID,20.7945,VALID,142,VALID,1.2002,
2007-04-17, 00:56:00,VALID,917.395,VALID,0,VALID,100,VALID,-0.135847,VALID,20.8037,VALID,135,VALID,1.0609,
2007-04-17, 00:57:00,VALID,917.356,VALID,0,VALID,100,VALID,-0.152827,VALID,20.8075,VALID,137,VALID,1.05806,
2007-04-17, 00:58:00,VALID,917.333,VALID,0,VALID,100,VALID,-0.186789,VALID,20.8229,VALID,139,VALID,1.3417,
2007-04-17, 00:59:00,VALID,917.318,VALID,0,VALID,100,VALID,-0.0509425,VALID,20.8319,VALID,131,VALID,1.01926,
2007-04-17, 01:00:01,VALID,917.278,VALID,0,VALID,100,VALID,-0.0169808,VALID,20.8281,VALID,140,VALID,0.735863,
2007-04-17, 01:01:00,VALID,917.244,VALID,0,VALID,100,VALID,0.0169808,VALID,20.8343,VALID,137,VALID,1.28826,
2007-04-17, 01:02:00,VALID,917.211,VALID,0,VALID,100,VALID,0.0169808,VALID,20.8378,VALID,137,VALID,1.00817,
2007-04-17, 01:03:01,VALID,917.184,VALID,0,VALID,100,VALID,-0.0169808,VALID,20.8316,VALID,138,VALID,1.2221,
2007-04-17, 01:04:00,VALID,917.154,VALID,0,VALID,100,VALID,0,VALID,20.8351,VALID,141,VALID,1.37919,
2007-04-17, 01:05:00,VALID,917.119,VALID,0,VALID,100,VALID,-0.0339617,VALID,20.8254,VALID,143,VALID,1.36648,
2007-04-17, 01:06:01,VALID,917.098,VALID,0,VALID,100,VALID,-0.0339617,VALID,20.8219,VALID,145,VALID,1.48438,
2007-04-17, 01:07:01,VALID,917.076,VALID,0,VALID,100,VALID,-0.0169808,VALID,20.8286,VALID,144,VALID,1.31126,
2007-04-17, 01:08:00,VALID,917.04,VALID,0,VALID,100,VALID,0,VALID,20.8221,VALID,147,VALID,1.1351,
2007-04-17, 01:09:01,VALID,917.029,VALID,0,VALID,100,VALID,-0.0169808,VALID,20.8086,VALID,155,VALID,0.80814,
2007-04-17, 01:10:01,VALID,917.01,VALID,0,VALID,100,VALID,0,VALID,20.7897,VALID,148,VALID,1.1541,
2007-04-17, 01:11:01,VALID,916.969,VALID,0,VALID,100,VALID,-0.0339617,VALID,20.7572,VALID,145,VALID,1.20567,
2007-04-17, 01:12:01,VALID,916.95,VALID,0,VALID,100,VALID,0,VALID,20.7275,VALID,150,VALID,1.28659,
2007-04-17, 01:13:01,VALID,916.918,VALID,0,VALID,100,VALID,-0.0509425,VALID,20.728,VALID,150,VALID,1.36555,
2007-04-17, 01:14:01,VALID,916.891,VALID,0,VALID,100,VALID,-0.169808,VALID,20.7328,VALID,152,VALID,1.15123,
2007-04-17, 01:15:01,VALID,916.857,VALID,0,VALID,100,VALID,-0.118866,VALID,20.7323,VALID,152,VALID,1.6147,
2007-04-17, 01:16:01,VALID,916.844,VALID,0,VALID,100,VALID,-0.101885,VALID,20.762,VALID,161,VALID,1.52801,
2007-04-17, 01:17:00,VALID,916.826,VALID,0,VALID,100,VALID,-0.118866,VALID,20.7683,VALID,165,VALID,1.57949,
2007-04-17, 01:18:00,VALID,916.829,VALID,0,VALID,100,VALID,-0.118866,VALID,20.7847,VALID,167,VALID,1.12336,
2007-04-17, 01:19:00,VALID,916.802,VALID,0,VALID,100,VALID,-0.101885,VALID,20.788,VALID,161,VALID,1.52474,
2007-04-17, 01:20:00,VALID,916.783,VALID,0,VALID,100,VALID,-0.101885,VALID,20.781,VALID,154,VALID,0.895139,
2007-04-17, 01:21:00,VALID,916.784,VALID,0,VALID,100,VALID,-0.118866,VALID,20.7815,VALID,156,VALID,1.70916,
2007-04-17, 01:22:00,VALID,916.769,VALID,0,VALID,100,VALID,-0.118866,VALID,20.7747,VALID,153,VALID,1.225,
2007-04-17, 01:23:00,VALID,916.761,VALID,0,VALID,100,VALID,-0.101885,VALID,20.7842,VALID,150,VALID,1.1905,
2007-04-17, 01:24:00,VALID,916.73,VALID,0,VALID,100,VALID,-0.101885,VALID,20.7912,VALID,152,VALID,1.36094,
2007-04-17, 01:25:00,VALID,916.714,VALID,0,VALID,100,VALID,-0.118866,VALID,20.794,VALID,146,VALID,1.19212,
2007-04-17, 01:26:00,VALID,916.685,VALID,0,VALID,100,VALID,-0.0849042,VALID,20.8102,VALID,142,VALID,1.69876,
2007-04-17, 01:27:00,VALID,916.665,VALID,0,VALID,100,VALID,-0.118866,VALID,20.8299,VALID,149,VALID,1.32999,
2007-04-17, 01:28:00,VALID,916.646,VALID,0,VALID,100,VALID,-0.118866,VALID,20.8432,VALID,140,VALID,1.31433,
2007-04-17, 01:29:00,VALID,916.629,VALID,0,VALID,100,VALID,-0.101885,VALID,20.8591,VALID,145,VALID,1.43693,
2007-04-17, 01:30:00,VALID,916.627,VALID,0,VALID,100,VALID,-0.118866,VALID,20.8886,VALID,144,VALID,1.09144,
2007-04-17, 01:31:00,VALID,916.614,VALID,0,VALID,100,VALID,-0.101885,VALID,20.8919,VALID,150,VALID,1.19931,
2007-04-17, 01:32:00,VALID,916.602,VALID,0,VALID,100,VALID,-0.101885,VALID,20.8984,VALID,147,VALID,1.02204,
2007-04-17, 01:33:00,VALID,916.596,VALID,0,VALID,100,VALID,-0.135847,VALID,20.8954,VALID,132,VALID,1.04857,
2007-04-17, 01:34:00,VALID,916.59,VALID,0,VALID,100,VALID,-0.135847,VALID,20.8816,VALID,137,VALID,0.938262,
2007-04-17, 01:35:00,VALID,916.594,VALID,0,VALID,100,VALID,-0.101885,VALID,20.8724,VALID,140,VALID,0.835547,
2007-04-17, 01:36:00,VALID,916.582,VALID,0,VALID,100,VALID,-0.152827,VALID,20.8662,VALID,144,VALID,1.04688,
2007-04-17, 01:37:00,VALID,916.569,VALID,0,VALID,100,VALID,-0.135847,VALID,20.8529,VALID,139,VALID,1.04474,
2007-04-17, 01:38:00,VALID,916.556,VALID,0,VALID,100,VALID,-0.169808,VALID,20.8434,VALID,139,VALID,0.652876,
2007-04-17, 01:39:00,VALID,916.535,VALID,0,VALID,100,VALID,-0.135847,VALID,20.8334,VALID,134,VALID,0.678416,
2007-04-17, 01:40:00,VALID,916.535,VALID,0,VALID,100,VALID,-0.135847,VALID,20.824,VALID,139,VALID,0.901172,
2007-04-17, 01:41:00,VALID,916.521,VALID,0,VALID,100,VALID,-0.152827,VALID,20.8204,VALID,141,VALID,0.516555,
2007-04-17, 01:42:00,VALID,916.496,VALID,0,VALID,100,VALID,-0.135847,VALID,20.8107,VALID,139,VALID,0.304315,
2007-04-17, 01:43:00,VALID,916.477,VALID,0,VALID,100,VALID,-0.169808,VALID,20.8142,VALID,147,VALID,0.790039,
2007-04-17, 01:44:00,VALID,916.451,VALID,0,VALID,100,VALID,-0.0509425,VALID,20.8126,VALID,154,VALID,0.670351,
2007-04-17, 01:45:00,VALID,916.436,VALID,0,VALID,100,VALID,-0.0679233,VALID,20.8091,VALID,136,VALID,0.966463,
2007-04-17, 01:46:00,VALID,916.413,VALID,0,VALID,100,VALID,-0.0509425,VALID,20.8221,VALID,156,VALID,0.805618,
2007-04-17, 01:47:00,VALID,916.386,VALID,0,VALID,100,VALID,-0.0509425,VALID,20.8324,VALID,158,VALID,0.601926,
2007-04-17, 01:48:00,VALID,916.368,VALID,0,VALID,100,VALID,-0.0339617,VALID,20.8324,VALID,144,VALID,0.311012,
2007-04-17, 01:49:00,VALID,916.352,VALID,0,VALID,100,VALID,0,VALID,20.8186,VALID,144,VALID,0.139535,
2007-04-17, 01:50:00,VALID,916.341,VALID,0,VALID,100,VALID,-0.0169808,VALID,20.8121,VALID,144,VALID,0,
2007-04-17, 01:51:00,VALID,916.33,VALID,0,VALID,100,VALID,-0.0509425,VALID,20.8226,VALID,144,VALID,0.138194,
2007-04-17, 01:52:00,VALID,916.325,VALID,0,VALID,100,VALID,-0.0509425,VALID,20.8094,VALID,230,VALID,0.55545,
2007-04-17, 01:53:00,VALID,916.309,VALID,0,VALID,100,VALID,-0.0509425,VALID,20.8126,VALID,231,VALID,0.526811,
2007-04-17, 01:54:00,VALID,916.296,VALID,0,VALID,100,VALID,-0.0339617,VALID,20.8056,VALID,235,VALID,0.422602,
2007-04-17, 01:55:00,VALID,916.298,VALID,0,VALID,100,VALID,0,VALID,20.7729,VALID,290,VALID,0.654688,
2007-04-17, 01:56:00,VALID,916.299,VALID,0,VALID,100,VALID,0,VALID,20.7407,VALID,290,VALID,0.125888,
2007-04-17, 01:57:00,VALID,916.302,VALID,0,VALID,100,VALID,-0.0339617,VALID,20.7118,VALID,290,VALID,0.083939,
2007-04-17, 01:58:00,VALID,916.287,VALID,0,VALID,100,VALID,-0.0679233,VALID,20.6861,VALID,290,VALID,0.235491,
2007-04-17, 01:59:00,VALID,916.28,VALID,0,VALID,100,VALID,0,VALID,20.6631,VALID,290,VALID,0.11879,
2007-04-17, 02:00:00,VALID,916.27,VALID,0,VALID,100,VALID,0.0169808,VALID,20.6304,VALID,290,VALID,0,
2007-04-17, 02:01:00,VALID,916.244,VALID,0,VALID,100,VALID,-0.0169808,VALID,20.6052,VALID,290,VALID,0,
2007-04-17, 02:02:00,VALID,916.236,VALID,0,VALID,100,VALID,-0.0339617,VALID,20.5882,VALID,290,VALID,0,
2007-04-17, 02:03:00,VALID,916.237,VALID,0,VALID,100,VALID,-0.0169808,VALID,20.5982,VALID,290,VALID,0,
2007-04-17, 02:04:00,VALID,916.231,VALID,0,VALID,100,VALID,-0.0169808,VALID,20.5984,VALID,290,VALID,0.341332,
2007-04-17, 02:05:00,VALID,916.238,VALID,0,VALID,100,VALID,0,VALID,20.5852,VALID,336,VALID,0.865091,
2007-04-17, 02:06:00,VALID,916.243,VALID,0,VALID,100,VALID,-0.0169808,VALID,20.5398,VALID,11,VALID,1.02102,
2007-04-17, 02:07:00,VALID,916.246,VALID,0,VALID,100,VALID,-0.0169808,VALID,20.4846,VALID,16,VALID,1.0798,
2007-04-17, 02:08:00,VALID,916.245,VALID,0,VALID,100,VALID,-0.0169808,VALID,20.4424,VALID,18,VALID,0.99782,
2007-04-17, 02:09:00,VALID,916.239,VALID,0,VALID,100,VALID,-0.0169808,VALID,20.4229,VALID,7,VALID,0.954368,
2007-04-17, 02:10:00,VALID,916.225,VALID,0,VALID,100,VALID,-0.0169808,VALID,20.4035,VALID,7,VALID,0.937128,
2007-04-17, 02:11:00,VALID,916.218,VALID,0,VALID,100,VALID,0,VALID,20.3907,VALID,7,VALID,0.485305,
2007-04-17, 02:12:00,VALID,916.202,VALID,0,VALID,100,VALID,0,VALID,20.3775,VALID,7,VALID,0.193598,
2007-04-17, 02:13:00,VALID,916.193,VALID,0,VALID,100,VALID,-0.0339617,VALID,20.3645,VALID,7,VALID,0.554878,
2007-04-17, 02:14:00,VALID,916.193,VALID,0,VALID,100,VALID,0,VALID,20.358,VALID,7,VALID,0.582403,
2007-04-17, 02:15:00,VALID,916.181,VALID,0,VALID,100,VALID,-0.0339617,VALID,20.345,VALID,7,VALID,0.693004,
2007-04-17, 02:16:00,VALID,916.168,VALID,0,VALID,100,VALID,0,VALID,20.3286,VALID,7,VALID,0.521802,
2007-04-17, 02:17:00,VALID,916.149,VALID,0,VALID,100,VALID,0,VALID,20.3221,VALID,6,VALID,0.520647,
2007-04-17, 02:18:00,VALID,916.133,VALID,0,VALID,100,VALID,-0.0339617,VALID,20.3061,VALID,6,VALID,0.452785,
2007-04-17, 02:19:00,VALID,916.114,VALID,0,VALID,100,VALID,0,VALID,20.2991,VALID,6,VALID,0.317708,
2007-04-17, 02:20:00,VALID,916.097,VALID,0,VALID,100,VALID,-0.0169808,VALID,20.3128,VALID,6,VALID,0.239139,
2007-04-17, 02:21:00,VALID,916.083,VALID,0,VALID,100,VALID,0,VALID,20.3191,VALID,6,VALID,0.0125762,
2007-04-17, 02:22:00,VALID,916.057,VALID,0,VALID,100,VALID,0.0169808,VALID,20.3186,VALID,6,VALID,0,
2007-04-17, 02:23:00,VALID,916.04,VALID,0,VALID,100,VALID,0,VALID,20.3053,VALID,6,VALID,0,
2007-04-17, 02:24:00,VALID,916.031,VALID,0,VALID,100,VALID,0.0169808,VALID,20.3186,VALID,6,VALID,0,
2007-04-17, 02:25:00,VALID,916.014,VALID,0,VALID,100,VALID,0,VALID,20.3288,VALID,6,VALID,0.310454,
2007-04-17, 02:26:00,VALID,916.003,VALID,0,VALID,100,VALID,0.0339617,VALID,20.3383,VALID,5,VALID,0.65957,
2007-04-17, 02:27:00,VALID,915.995,VALID,0,VALID,100,VALID,0.0339617,VALID,20.3315,VALID,2,VALID,0.46254,
2007-04-17, 02:28:00,VALID,915.975,VALID,0,VALID,100,VALID,0.0169808,VALID,20.3415,VALID,2,VALID,0.264172,
2007-04-17, 02:29:00,VALID,915.956,VALID,0,VALID,100,VALID,0,VALID,20.3513,VALID,2,VALID,0.0362043,
2007-04-17, 02:30:00,VALID,915.936,VALID,0,VALID,100,VALID,0.0169808,VALID,20.3578,VALID,2,VALID,0,
2007-04-17, 02:31:00,VALID,915.932,VALID,0,VALID,100,VALID,0.0169808,VALID,20.361,VALID,2,VALID,0.0052689,
2007-04-17, 02:32:00,VALID,915.924,VALID,0,VALID,100,VALID,0.0169808,VALID,20.3545,VALID,2,VALID,0.00747283,
2007-04-17, 02:33:00,VALID,915.915,VALID,0,VALID,100,VALID,-0.0169808,VALID,20.3513,VALID,2,VALID,0.100713,
2007-04-17, 02:34:00,VALID,915.904,VALID,0,VALID,100,VALID,-0.0339617,VALID,20.3415,VALID,2,VALID,0.301491,
2007-04-17, 02:35:00,VALID,915.905,VALID,0,VALID,100,VALID,-0.0169808,VALID,20.342,VALID,2,VALID,0.046689,
2007-04-17, 02:36:00,VALID,915.885,VALID,0,VALID,100,VALID,0,VALID,20.3256,VALID,2,VALID,0,
2007-04-17, 02:37:00,VALID,915.864,VALID,0,VALID,100,VALID,0,VALID,20.3091,VALID,2,VALID,0.00130208,
2007-04-17, 02:38:00,VALID,915.854,VALID,0,VALID,100,VALID,-0.0339617,VALID,20.3031,VALID,2,VALID,0.00130208,
2007-04-17, 02:39:00,VALID,915.844,VALID,0,VALID,100,VALID,-0.0169808,VALID,20.2899,VALID,2,VALID,0.0126953,
2007-04-17, 02:40:00,VALID,915.846,VALID,0,VALID,100,VALID,-0.0339617,VALID,20.2769,VALID,2,VALID,0.330602,
2007-04-17, 02:41:00,VALID,915.845,VALID,0,VALID,100,VALID,-0.0169808,VALID,20.2542,VALID,2,VALID,0.473011,
2007-04-17, 02:42:00,VALID,915.84,VALID,0,VALID,100,VALID,-0.0169808,VALID,20.2412,VALID,3,VALID,0.558866,
2007-04-17, 02:43:00,VALID,915.84,VALID,0,VALID,100,VALID,0,VALID,20.2187,VALID,6,VALID,0.733487,
2007-04-17, 02:44:00,VALID,915.835,VALID,0,VALID,100,VALID,0,VALID,20.1952,VALID,7,VALID,0.339258,
2007-04-17, 02:45:00,VALID,915.847,VALID,0,VALID,100,VALID,0,VALID,20.179,VALID,7,VALID,0.176067,
2007-04-17, 02:46:00,VALID,915.84,VALID,0,VALID,100,VALID,-0.0169808,VALID,20.1987,VALID,7,VALID,0.423328,
2007-04-17, 02:47:00,VALID,915.822,VALID,0,VALID,100,VALID,-0.0169808,VALID,20.228,VALID,7,VALID,0.160442,
2007-04-17, 02:48:00,VALID,915.811,VALID,0,VALID,100,VALID,0,VALID,20.2409,VALID,7,VALID,0,
2007-04-17, 02:49:00,VALID,915.792,VALID,0,VALID,100,VALID,0,VALID,20.2507,VALID,7,VALID,0.0466845,
2007-04-17, 02:50:00,VALID,915.778,VALID,0,VALID,100,VALID,-0.0169808,VALID,20.2739,VALID,7,VALID,0.162642,
2007-04-17, 02:51:00,VALID,915.769,VALID,0,VALID,100,VALID,0,VALID,20.2964,VALID,7,VALID,0.106898,
2007-04-17, 02:52:00,VALID,915.767,VALID,0,VALID,100,VALID,0,VALID,20.3064,VALID,7,VALID,0.417515,
2007-04-17, 02:53:00,VALID,915.755,VALID,0,VALID,100,VALID,0,VALID,20.3191,VALID,7,VALID,0.423328,
2007-04-17, 02:54:00,VALID,915.745,VALID,0,VALID,100,VALID,0.0169808,VALID,20.3028,VALID,7,VALID,0.361555,
2007-04-17, 02:55:00,VALID,915.73,VALID,0,VALID,100,VALID,0,VALID,20.2896,VALID,7,VALID,0.257813,
2007-04-17, 02:56:00,VALID,915.729,VALID,0,VALID,100,VALID,0,VALID,20.2831,VALID,7,VALID,0.190104,
2007-04-17, 02:57:00,VALID,915.72,VALID,0,VALID,100,VALID,0.0169808,VALID,20.2799,VALID,7,VALID,0.0961682,
2007-04-17, 02:58:00,VALID,915.71,VALID,0,VALID,100,VALID,-0.0169808,VALID,20.2764,VALID,7,VALID,0,
2007-04-17, 02:59:00,VALID,915.716,VALID,0,VALID,100,VALID,-0.0509425,VALID,20.2791,VALID,7,VALID,0,
2007-04-17, 03:00:00,VALID,915.717,VALID,0,VALID,100,VALID,0,VALID,20.2659,VALID,7,VALID,0.00105574,
2007-04-17, 03:01:00,VALID,915.728,VALID,0,VALID,100,VALID,0.0169808,VALID,20.2559,VALID,7,VALID,0,
2007-04-17, 03:02:00,VALID,915.761,VALID,0,VALID,100,VALID,0,VALID,20.2734,VALID,7,VALID,0,
2007-04-17, 03:03:00,VALID,915.786,VALID,0,VALID,100,VALID,0.0169808,VALID,20.2656,VALID,7,VALID,0,
2007-04-17, 03:04:00,VALID,915.812,VALID,0,VALID,100,VALID,-0.0169808,VALID,20.2631,VALID,7,VALID,0,
2007-04-17, 03:05:00,VALID,915.819,VALID,0,VALID,100,VALID,0,VALID,20.2464,VALID,7,VALID,0,
2007-04-17, 03:06:00,VALID,915.832,VALID,0,VALID,100,VALID,-0.0169808,VALID,20.2304,VALID,7,VALID,0.0159574,
2007-04-17, 03:07:00,VALID,915.83,VALID,0,VALID,100,VALID,-0.0169808,VALID,20.2237,VALID,7,VALID,0.0115412,
2007-04-17, 03:08:00,VALID,915.806,VALID,0,VALID,100,VALID,-0.0169808,VALID,20.2207,VALID,7,VALID,0,
2007-04-17, 03:09:00,VALID,915.797,VALID,0,VALID,100,VALID,-0.0169808,VALID,20.221,VALID,7,VALID,0.062686,
2007-04-17, 03:10:00,VALID,915.766,VALID,0,VALID,100,VALID,-0.0169808,VALID,20.228,VALID,7,VALID,0.0174851,
2007-04-17, 03:11:00,VALID,915.737,VALID,0,VALID,100,VALID,0,VALID,20.2339,VALID,7,VALID,0.287364,
2007-04-17, 03:12:00,VALID,915.713,VALID,0,VALID,100,VALID,-0.0679233,VALID,20.2309,VALID,5,VALID,0.383539,
2007-04-17, 03:13:00,VALID,915.704,VALID,0,VALID,100,VALID,-0.0169808,VALID,20.2215,VALID,3,VALID,0.536776,
2007-04-17, 03:14:00,VALID,915.701,VALID,0,VALID,100,VALID,-0.0339617,VALID,20.2342,VALID,346,VALID,0.546875,
2007-04-17, 03:15:00,VALID,915.695,VALID,0,VALID,100,VALID,-0.0169808,VALID,20.2339,VALID,346,VALID,0.289648,
2007-04-17, 03:16:00,VALID,915.694,VALID,0,VALID,100,VALID,0,VALID,20.2437,VALID,346,VALID,0.100632,
2007-04-17, 03:17:00,VALID,915.697,VALID,0,VALID,100,VALID,0,VALID,20.2564,VALID,346,VALID,0,
2007-04-17, 03:18:00,VALID,915.7,VALID,0,VALID,100,VALID,0,VALID,20.2629,VALID,346,VALID,0,
2007-04-17, 03:19:00,VALID,915.712,VALID,0,VALID,100,VALID,-0.0169808,VALID,20.2694,VALID,346,VALID,0.0445884,
2007-04-17, 03:20:00,VALID,915.717,VALID,0,VALID,100,VALID,-0.0169808,VALID,20.2794,VALID,346,VALID,0.289825,
2007-04-17, 03:21:00,VALID,915.723,VALID,0,VALID,100,VALID,0,VALID,20.3056,VALID,346,VALID,0.235828,
2007-04-17, 03:22:00,VALID,915.744,VALID,0,VALID,100,VALID,0,VALID,20.3081,VALID,346,VALID,0.110863,
2007-04-17, 03:23:00,VALID,915.746,VALID,0,VALID,100,VALID,0,VALID,20.3283,VALID,346,VALID,0,
2007-04-17, 03:24:00,VALID,915.767,VALID,0,VALID,100,VALID,0,VALID,20.3116,VALID,346,VALID,0.0269097,
2007-04-17, 03:25:00,VALID,915.788,VALID,0,VALID,100,VALID,-0.0169808,VALID,20.2923,VALID,346,VALID,0.394886,
2007-04-17, 03:26:00,VALID,915.788,VALID,0,VALID,100,VALID,-0.0169808,VALID,20.2374,VALID,348,VALID,0.544389,
2007-04-17, 03:27:00,VALID,915.807,VALID,0,VALID,100,VALID,0,VALID,20.1982,VALID,348,VALID,0.513263,
2007-04-17, 03:28:00,VALID,915.796,VALID,0,VALID,100,VALID,-0.0169808,VALID,20.1588,VALID,348,VALID,0.573958,
2007-04-17, 03:29:00,VALID,915.797,VALID,0,VALID,100,VALID,0.0339617,VALID,20.0971,VALID,348,VALID,0.553516,
2007-04-17, 03:30:00,VALID,915.778,VALID,0,VALID,100,VALID,0.0169808,VALID,20.042,VALID,358,VALID,0.648438,
2007-04-17, 03:31:00,VALID,915.773,VALID,0,VALID,100,VALID,0,VALID,20.016,VALID,6,VALID,0.500953,
2007-04-17, 03:32:00,VALID,915.775,VALID,0,VALID,100,VALID,0,VALID,20.0035,VALID,6,VALID,0.537427,
2007-04-17, 03:33:00,VALID,915.759,VALID,0,VALID,100,VALID,-0.0169808,VALID,19.9973,VALID,6,VALID,0.613281,
2007-04-17, 03:34:00,VALID,915.774,VALID,0,VALID,100,VALID,0.0169808,VALID,19.9906,VALID,6,VALID,0.48274,
2007-04-17, 03:35:00,VALID,915.778,VALID,0,VALID,100,VALID,0,VALID,19.9936,VALID,6,VALID,0.194741,
2007-04-17, 03:36:00,VALID,915.79,VALID,0,VALID,100,VALID,0,VALID,19.9863,VALID,46,VALID,0.560501,
2007-04-17, 03:37:00,VALID,915.802,VALID,0,VALID,100,VALID,0.0169808,VALID,19.9836,VALID,156,VALID,0.931362,
2007-04-17, 03:38:00,VALID,915.808,VALID,0,VALID,100,VALID,0,VALID,19.9703,VALID,154,VALID,1.1224,
2007-04-17, 03:39:00,VALID,915.825,VALID,0,VALID,100,VALID,0,VALID,19.9639,VALID,153,VALID,1.20903,
2007-04-17, 03:40:00,VALID,915.824,VALID,0,VALID,100,VALID,-0.0169808,VALID,19.9778,VALID,150,VALID,1.16927,
2007-04-17, 03:41:00,VALID,915.826,VALID,0,VALID,100,VALID,0,VALID,19.9803,VALID,138,VALID,1.0387,
2007-04-17, 03:42:00,VALID,915.823,VALID,0,VALID,100,VALID,0,VALID,20.003,VALID,137,VALID,0.855841,